Location: D?mul?ru
(16.8306°N, 80.3647°E)
Time: 10:29:12
(UTC+00:00)

Daily predictions for brighter satellites

Satellite Brightness Start Highest point End
(mag) Time Altitude Azimuth Time Altitude Azimuth Time Altitude Azimuth
Atlas Centaur 2 4.1 13:26:22 10° NW 13:30:00 18° N 13:33:11 10° NNE
Centaur D AC-28 3.3 13:27:46 10° W 13:31:25 43° N 13:39:33 10° ENE
H-2A R/B 3.2 13:30:14 10° S 13:34:05 52° WSW 13:37:51 10° NNW
Cosmos-2242 3.2 13:30:48 10° N 13:34:54 49° E 13:39:00 10° SSE
GPS 2-18 Rocket1 4.3 13:34:39 10° SW 13:37:48 24° SSE 13:40:54 10° ESE
Cosmos 1689 Rocket 3.1 13:37:11 10° NE 13:39:23 22° E 13:41:35 10° SSE
Aurora 2 Rocket 3.9 13:35:47 10° W 13:41:20 69° NNW 13:49:28 10° ENE
Cosmos 773 Rocket 4.2 13:36:10 10° SSW 13:41:23 77° WNW 13:46:34 10° N
Palapa 6 Rocket 3.2 13:39:04 10° W 13:43:23 62° NNW 13:47:10 10° ENE
Cosmos 2034 Rocket 4.4 13:38:32 10° N 13:44:48 73° W 13:51:07 10° S
USA 186 3.8 13:46:25 11° E 13:47:17 12° ENE 13:48:34 10° NE
USA 238 DEB 4.0 13:42:17 10° NNW 13:49:51 89° ENE 13:57:33 10° SSE
USA 238 4.0 13:42:22 10° NNW 13:49:57 88° ENE 13:57:40 10° SSE
Cosmos 1869 3.3 13:46:22 10° N 13:50:07 55° E 13:53:53 10° SSE
Cosmos 1437 Rocket 3.2 13:48:00 10° N 13:51:46 42° E 13:55:36 10° SSE
Cosmos 1825 2.6 13:48:05 10° SSW 13:51:47 65° W 13:55:29 10° N
Cosmos 1437 4.2 13:51:41 10° NE 13:53:16 14° E 13:53:25 14° E
Cosmos 1980 Rocket 4.0 13:57:30 10° NE 13:59:30 12° ENE 14:00:54 11° E
Cosmos 2084 3.7 13:57:23 10° S 14:01:07 38° ESE 14:04:51 10° NE
SJ-6B 4.4 14:00:37 15° E 14:01:12 16° ENE 14:03:28 10° NE
YAOGAN 1 3.1 13:57:06 10° S 14:01:21 60° W 14:05:37 10° NNW
CSL-04 Rocket 3.9 13:59:42 10° SSE 14:05:00 52° ENE 14:10:13 10° N
Cosmos 2221 3.8 14:04:07 10° NNE 14:07:25 21° E 14:08:11 20° E
Helios 1A Rocket 4.2 14:12:23 21° E 14:12:57 22° ENE 14:16:04 10° NNE
Okean-O 2.8 14:09:18 10° S 14:13:42 73° WSW 14:18:07 10° NNW
Cosmos 1125 Rocket 4.0 14:11:36 10° NNW 14:16:49 60° WSW 14:22:00 10° S
NOSS 2-1 (E) 3.6 14:13:40 10° S 14:17:43 38° ESE 14:21:00 10° NE
USA 307 4.3 14:15:11 10° WNW 14:19:01 34° WSW 14:22:27 12° S
ERBS 4.2 14:19:56 10° NNE 14:21:42 16° NE 14:21:42 16° NE
Cosmos 1634 Rocket 4.0 14:16:19 10° N 14:22:31 82° W 14:28:41 10° S
ASTRO E2 3.1 14:19:32 10° SW 14:23:14 39° SSE 14:23:41 37° SE
ERS-2 2.7 14:21:24 10° NNE 14:24:16 34° E 14:24:16 34° E
Cosmos 1680 Rocket 4.2 14:23:42 28° SE 14:24:51 31° E 14:29:27 10° NE
Meteor 2-3 Rocket 4.3 14:29:59 31° ESE 14:31:17 35° E 14:36:23 10° NNE
BREEZE-M R/B 4.4 14:10:13 10° SW 14:32:04 82° NW 14:36:53 10° NE
Hubble Space Telescope 2.2 14:31:37 10° NW 14:35:12 28° NNE 14:36:27 24° NE
OAO 2 Rocket 4.1 14:30:57 10° NW 14:35:44 39° NNE 14:37:21 31° ENE
Resurs 01 Rocket 3.9 14:38:35 11° NE 14:38:35 11° NE 14:38:52 10° NE
Cosmos 1076 Rocket 3.5 14:33:11 10° S 14:37:29 81° W 14:41:50 10° N
Cosmos 1633 3.1 14:35:28 11° SSW 14:38:51 57° W 14:42:24 10° N
Meteor 2-2 Rocket 4.1 14:34:30 10° N 14:40:11 83° E 14:43:38 25° S
Cosmos 2180 Rocket 4.4 14:34:20 10° N 14:40:21 59° E 14:43:04 33° SSE
Meteor 2-19 Rocket 4.5 14:38:33 27° SSE 14:41:39 53° E 14:47:30 10° NNE
GPS 2-12 Rocket1 4.5 14:40:32 10° WSW 14:44:31 26° SSW 14:45:11 25° S
GENESIS II 4.1 14:44:40 10° NNW 14:48:24 79° NNE 14:48:24 79° NNE
ATLAS 2A CENTAUR R/B 4.0 14:05:04 10° WNW 14:52:07 84° SSW 14:57:24 37° ESE
Cosmos 2360 4.1 14:46:26 10° NNW 14:52:08 86° ENE 14:53:54 46° SSE
Cosmos 2098 Rocket 3.5 14:52:56 38° WNW 14:52:56 38° WNW 14:55:31 10° NNW
Cosmos 1697 Rocket 2.7 14:48:20 10° NNW 14:53:59 77° WSW 14:56:10 38° S
Ariane Rocket 3.4 14:58:58 44° NE 14:58:58 44° NE 15:03:10 10° N
Cosmos 1092 Rocket 3.8 15:02:04 52° SSE 15:03:34 71° E 15:09:49 10° N
ATLAS 3B R/B 3.6 14:58:40 10° N 15:05:12 34° ENE 15:05:30 34° ENE
Delta 128 4.2 15:02:02 10° WSW 15:08:49 69° SSE 15:08:53 69° SSE
OBJECT-B 3.1 15:10:56 22° W 15:10:56 22° W 15:13:02 10° NW
Meteor 2-8 Rocket 4.3 15:04:57 10° N 15:10:59 67° E 15:10:59 67° E
Cosmos 2026 Rocket 3.9 15:12:59 66° E 15:12:59 66° E 15:19:06 10° NNE
Atlas Centaur 2 3.8 15:17:16 10° NNW 15:19:54 15° N 15:19:54 15° N
Sakura Rocket 4.3 15:10:32 10° WNW 15:20:21 89° NNE 15:21:41 66° ESE
Cosmos 2278 4.0 15:15:13 10° N 15:19:49 55° NNE 15:19:49 55° NNE
Cosmos 1980 Rocket 2.9 15:38:05 10° NNW 15:42:42 49° WNW 15:42:42 49° WNW
SL-16 R/B 4.5 16:21:21 10° NNW 16:22:42 18° NNW 16:22:42 18° NNW
USA 215 3.9 21:25:01 10° NE 21:30:23 46° E 21:30:23 46° E
CZ-3 Stage 3 4.3 21:46:44 20° NNE 21:47:19 21° NNE 21:52:31 10° E
Longmarch 3A Rocket 4.3 21:50:42 25° SE 21:50:42 25° SE 21:52:27 10° ESE
ARIANE 5 R/B 3.9 21:48:44 10° N 21:51:27 31° N 21:51:27 31° N
Palapa B4 Rocket 3.9 21:59:53 81° E 21:59:53 81° E 22:08:04 10° E
Cosmos 1727 Rocket 4.1 21:53:34 10° N 21:58:58 68° NNW 21:58:58 68° NNW
PAYLOAD A 4.4 22:00:30 10° NNE 22:04:51 62° NNE 22:04:51 62° NNE
Okean 1 Rocket 4.5 22:10:07 32° N 22:10:07 32° N 22:12:31 10° N
Meteor 2-5 Rocket 3.8 22:06:26 10° N 22:12:13 75° E 22:13:31 54° SSE
CZ-3 Stage 3 3.9 22:17:43 10° N 22:18:53 12° NNE 22:20:43 10° NE
Spot 4 Rocket 4.2 22:16:39 10° N 22:21:04 57° NW 22:21:04 57° NW
Cosmos 540 Rocket 3.5 22:17:17 10° N 22:22:27 76° ENE 22:25:01 30° SSE
Tiangong 4.2 22:23:42 11° ESE 22:23:42 11° ESE 22:23:55 10° ESE
Delta 198 4.4 22:27:52 34° NNE 22:27:52 34° NNE 22:30:37 10° ENE
NOSS 3-4 (A) 4.1 22:20:02 10° NNW 22:27:43 78° ENE 22:36:01 10° SSE
NOSS 3-4 (C) 4.2 22:20:08 10° NNW 22:27:51 77° ENE 22:36:07 10° SSE
Cosmos 724 4.3 22:26:55 50° SSW 22:28:38 84° ESE 22:34:52 10° NNE
Cosmos 2278 Rocket 2.0 22:28:25 66° WSW 22:28:51 69° WNW 22:34:28 10° N
Cosmos 1908 4.4 22:28:10 34° SE 22:29:00 39° E 22:32:33 10° NNE
Delta 128 3.7 22:29:12 64° N 22:29:35 67° NNE 22:34:10 10° ESE
ALOS 2.1 22:25:48 10° NNE 22:30:27 87° ESE 22:30:57 72° S
FENGYUN 3A 3.5 22:26:12 10° N 22:31:35 82° WNW 22:32:49 55° SSW
Cosmos 2123 Rocket 4.4 22:28:53 10° N 22:34:57 60° E 22:41:01 10° SSE
ATLAS 2AS CENTAUR R/B 4.0 22:30:30 10° N 22:36:44 37° ENE 22:42:34 10° SE
Delta 142 4.3 22:38:49 45° W 22:40:27 58° SSW 22:45:47 10° SE
Atlas 2A Centaur Rocket 3.8 22:41:11 11° N 22:41:13 11° N 22:42:00 10° NNE
Chandra Rocket (1) 4.4 22:45:53 12° S 22:45:53 12° S 22:46:13 10° SSE
CZ-2C R/B 3.6 22:39:16 10° N 22:41:56 37° NNW 22:41:56 37° NNW
TIMED 4.3 22:39:52 10° NNW 22:44:13 78° WSW 22:46:09 32° S
Cosmos 1486 Rocket 4.2 22:47:03 45° W 22:47:46 48° WNW 22:52:46 10° N
ASTRO E2 2.7 22:46:50 47° NW 22:47:50 73° NNE 22:51:47 10° ESE
SL-4 R/B 2.1 22:47:56 54° S 22:48:42 72° SE 22:52:59 10° NE
Cosmos 968 Rocket 4.4 22:49:24 29° WNW 22:49:24 29° WNW 22:53:27 10° NNW
IUS-17 SRM-1 2.7 22:49:37 49° N 22:49:51 52° NNE 22:52:04 10° E
CZ-2C R/B 3.5 22:51:35 10° NNW 22:54:58 25° WNW 22:54:58 25° WNW
Cosmos 1455 Rocket 3.0 22:58:53 26° SSW 23:01:20 71° W 23:05:45 10° N
Cosmos 1544 Rocket 4.1 22:58:55 10° S 23:03:16 61° E 23:07:36 10° NNE
ARIANE 5 DEB (SYLDA) 4.3 23:04:41 11° S 23:04:41 11° S 23:05:01 10° SSE
CZ-3 R/B 3.9 22:37:32 20° W 23:03:55 61° NNW 23:12:52 10° ENE
Cosmos 921 Rocket 3.2 23:00:09 10° N 23:04:40 78° E 23:09:08 10° SSE
Cosmos 1943 Rocket 3.7 23:00:09 10° SSE 23:05:03 34° ESE 23:09:56 10° NE
Milstar 3 4.1 22:59:31 10° WNW 23:05:42 33° N 23:11:52 10° ENE
SJ 16-02 3.9 23:04:52 10° SSE 23:08:06 20° E 23:11:20 10° NE
Cosmos 1953 2.6 23:07:01 33° SW 23:08:18 45° W 23:12:09 10° N
SJ-6F 4.4 23:06:40 10° N 23:10:43 65° WNW 23:13:33 19° SSW
USA 215 4.3 23:08:32 10° N 23:13:58 29° NW 23:17:45 17° W
SL-08 R/B 4.5 23:17:13 22° WSW 23:18:09 24° W 23:22:04 10° NW
GPS 2-17 Rocket1 3.0 23:16:19 19° W 23:19:41 83° SSW 23:24:14 10° ESE
Envisat 4.3 23:15:37 10° NNE 23:20:24 41° E 23:25:09 10° S
Cosmos 2297 4.0 23:15:48 10° S 23:21:20 67° ESE 23:26:55 10° NNE
Cosmos 1441 Rocket 3.7 23:18:30 10° NNW 23:22:13 41° W 23:25:57 10° SSW
Cosmos 1300 3.2 23:19:09 10° S 23:22:53 62° E 23:26:38 10° NNE
Cosmos 1703 4.1 23:21:54 10° N 23:25:40 51° E 23:29:25 10° SSE
Cosmos 1484 Rocket 4.0 23:23:23 10° NNW 23:26:40 25° WNW 23:28:29 18° WSW
FALCON 9 R/B 2.8 23:25:13 10° NNW 23:27:06 20° NNE 23:30:54 10° ENE
MOS 1 Rocket 3.6 23:22:52 10° S 23:27:45 53° W 23:32:53 10° NNW
YAOGAN 6 3.8 23:24:27 10° NNE 23:27:58 44° E 23:31:28 10° S
SJ-12 3.9 23:24:06 10° NNE 23:28:13 86° ESE 23:32:21 10° S
CZ-2C R/B 1.3 23:26:48 18° SW 23:29:46 68° SSE 23:33:37 10° ENE
CZ-3B R/B 3.6 23:20:49 10° WNW 23:32:40 64° N 23:37:55 10° E
GPS 2-14 Rocket1 3.8 23:31:36 14° SW 23:34:31 33° SSE 23:38:10 10° E
USA 281 4.2 23:29:30 10° SE 23:35:50 53° ENE 23:42:11 10° N
NATO 3D Rocket 3.6 23:31:46 10° WNW 23:36:26 70° NNE 23:41:46 10° E
Lacrosse 5 rocket 1.7 23:34:07 13° SW 23:38:09 57° WNW 23:42:29 10° NNE
Cosmos 1777 Rocket 4.0 23:36:33 10° SSW 23:41:48 75° WNW 23:47:04 10° N
Delta 168 4.3 23:42:16 10° SSW 23:45:33 29° SSE 23:49:55 10° E
Cosmos 2100 Rocket 4.0 23:39:29 10° SSW 23:45:46 68° W 23:52:02 10° N
Cosmos 1802 Rocket 4.1 23:42:38 10° S 23:48:55 89° E 23:55:18 10° N
Okean 1-7 Rocket 3.7 23:45:43 10° N 23:50:17 89° E 23:54:51 10° S
Cosmos 1833 Rocket 2.9 23:46:49 10° NNW 23:52:25 78° ENE 23:58:00 10° SSE
